{"data":{"norad_id":53481,"epoch":"2026-05-25T04:00:03.998880Z","epoch_age_seconds":57857,"freshness":"FRESH","line1":"1 53481U 22099S   26145.16671295  .00132099  00000+0  33286-2 0  9995","line2":"2 53481  97.6049 267.1451 0001608  82.9636 112.5405 15.39367270  5773","mean_motion":15.3936727,"eccentricity":0.0001608,"inclination_deg":97.6049,"raan_deg":267.1451,"arg_perigee_deg":82.9636,"mean_anomaly_deg":112.5405,"bstar":0.0033286,"rev_number":577,"period_min":93.544927715658,"perigee_km":446.88154183322,"apogee_km":449.07682079713,"semimajor_km":6826.1161813152,"source":"CELESTRAK","updated_at":"2026-05-25T13:38:17.432930Z"}}